Weather reports worldwide

Advertisment
Berlin-Schönefeld, Germany (10385): temperature & dewpoint: 06.11.2019 17:00:00 - 12.11.2019 17:00:00 (CET)Berlin-Schönefeld, Germany (10385): temperature 5cm & temperature -5cm: 06.11.2019 17:00:00 - 12.11.2019 17:00:00 (CET)Berlin-Schönefeld, Germany (10385): temperature -20cm & temperature -100cm: 06.11.2019 17:00:00 - 12.11.2019 17:00:00 (CET)Berlin-Schönefeld, Germany (10385): wind speed & gusts: 06.11.2019 17:00:00 - 12.11.2019 17:00:00 (CET)Berlin-Schönefeld, Germany (10385): wind direction: 06.11.2019 17:00:00 - 12.11.2019 17:00:00 (CET)Berlin-Schönefeld, Germany (10385): reduced air pressure: 06.11.2019 17:00:00 - 12.11.2019 17:00:00 (CET)Berlin-Schönefeld, Germany (10385): visibility: 06.11.2019 17:00:00 - 12.11.2019 17:00:00 (CET)Berlin-Schönefeld, Germany (10385): sunshine duration: 06.11.2019 17:00:00 - 12.11.2019 17:00:00 (CET)Berlin-Schönefeld, Germany (10385): precipitation: 06.11.2019 17:00:00 - 12.11.2019 17:00:00 (CET)
Date & Time tt [°C] td [°C] tt 5cm [°C] tt -5cm [°C] tt -20cm [°C] tt -100cm [°C] ff [km/h] ff [kn] fx [km/h] fx [kn] dd ppp [hPa] vv [km] sd [min] rr [mm]
12.11.2019 17:00:00 5,7 2,9 3,8 5,1 6,2 10,2 15 8 22 12 SSE 1006,4 10 0 0,0
12.11.2019 16:00:00 6,3 3,0 5,0 5,8 6,1 10,2 15 8 24 13 S 1006,5 10 0 0,0
12.11.2019 15:00:00 6,9 2,7 6,1 6,3 5,9 10,3 18 10 27 15 S 1006,8 40 0 0,0
12.11.2019 14:00:00 7,0 2,9 7,1 6,6 5,7 10,3 17 9 27 15 S 1006,2 40 0 0,0
12.11.2019 13:00:00 6,5 3,0 7,0 6,0 5,4 10,3 16 9 23 13 S 1006,9 10 0 0,0
12.11.2019 12:00:00 5,7 2,5 5,7 5,4 5,2 10,3 15 8 27 15 S 1007,3 10 0 0,0
12.11.2019 11:00:00 5,3 2,0 5,3 4,6 5,0 10,3 19 10 27 14 S 1007,5 23 0 0,0
12.11.2019 10:00:00 4,6 1,7 4,5 3,9 4,9 10,3 16 8 24 13 S 1007,6 21 0 0,0
12.11.2019 09:00:00 3,7 1,1 3,1 3,1 4,9 10,3 16 9 22 12 S 1007,5 10 0 0,0
12.11.2019 08:00:00 3,2 0,7 2,2 2,9 4,9 10,4 16 8 23 12 S 1007,0 18 0 0,0
12.11.2019 07:00:00 3,3 0,5 2,5 2,9 4,9 10,4 16 9 23 12 S 1006,5 10 0 0,0
12.11.2019 06:00:00 2,4 0,3 1,6 2,6 4,9 10,4 14 8 20 11 S 1006,3 16 0 0,0
12.11.2019 05:00:00 2,1 0,0 1,2 2,4 4,9 10,4 8 4 16 9 S 1006,1 15 0 0,0
12.11.2019 04:00:00 1,7 -0,2 0,7 2,0 5,0 10,4 9 5 16 9 S 1006,1 10 0 0,0
12.11.2019 03:00:00 1,0 -0,2 0,1 1,8 5,1 10,4 11 6 21 11 S 1006,5 8 0 0,0
12.11.2019 02:00:00 0,9 -0,3 -0,5 1,8 5,2 10,4 16 9 23 12 SSE 1006,7 9 0 0,0
12.11.2019 01:00:00 0,5 -0,6 -1,4 1,8 5,4 10,4 15 8 20 11 SSE 1006,6 10 0 0,0
12.11.2019 00:00:00 0,5 -0,7 -1,8 1,9 5,6 10,4 13 7 17 9 SSE 1007,0 10 0 0,0
11.11.2019 23:00:00 0,9 -0,4 -1,6 2,1 5,8 10,5 7 4 16 9 SE 1007,6 11 0 0,0
11.11.2019 22:00:00 1,5 -0,2 -1,0 2,4 6,1 10,5 11 6 24 13 SSE 1008,0 15 0 0,0
11.11.2019 21:00:00 1,7 -0,3 -0,4 2,8 6,4 10,5 14 8 29 16 SSE 1008,3 20 0 0,0
11.11.2019 20:00:00 2,7 0,0 0,7 3,3 6,6 10,5 16 9 31 17 S 1008,7 30 0 0,0
11.11.2019 19:00:00 3,8 0,4 2,0 3,9 6,9 10,5 21 11 31 17 SSE 1008,7 10 0 0,0
11.11.2019 18:00:00 4,1 0,1 1,6 4,3 7,1 10,5 18 10 28 15 SSE 1008,9 10 0 0,0
11.11.2019 17:00:00 5,1 0,8 2,2 5,3 7,3 10,5 16 9 24 13 SE 1009,1 40 3 0,0
11.11.2019 16:00:00 5,8 1,9 3,7 6,6 7,4 10,5 13 7 22 12 E 1009,8 10 60 0,0
11.11.2019 15:00:00 7,0 1,5 7,8 7,9 7,2 10,5 15 8 25 13 SE 1010,6 10 60 0,0
11.11.2019 14:00:00 7,1 1,8 9,6 8,5 6,9 10,6 16 9 24 13 SSE 1011,2 10 60 0,0
11.11.2019 13:00:00 6,3 2,2 9,4 8,2 6,5 10,6 15 8 30 16 SSE 1011,8 10 60 0,0
11.11.2019 12:00:00 5,2 3,3 8,3 7,0 6,2 10,6 13 7 23 13 SSE 1012,3 15 44 0,0
11.11.2019 11:00:00 3,2 2,3 4,5 5,7 6,1 10,6 13 7 21 11 S 1013,6 9 26 0,0
11.11.2019 10:00:00 1,8 1,7 3,9 4,6 6,1 10,6 11 6 18 10 SE 1013,8 6 8 0,0
11.11.2019 09:00:00 0,6 0,6 1,6 4,1 6,1 10,6 11 6 18 10 SE 1014,2 0,4 0 0,0
11.11.2019 08:00:00 0,2 0,2 0,7 3,8 6,2 10,6 11 6 21 11 SSE 1015,1 0,2 0 0,0
11.11.2019 07:00:00 0,0 0,0 0,4 3,9 6,3 10,6 9 5 16 9 SE 1014,9 0,3 0 0,0
11.11.2019 06:00:00 0,7 0,7 1,1 4,1 6,3 10,6 9 5 11 6 SE 1014,9 0,5 0 0,0
11.11.2019 05:00:00 1,2 1,2 1,5 4,2 6,4 10,6 9 5 13 7 ESE 1015,3 0,2 0 0,0
11.11.2019 04:00:00 0,8 0,8 1,2 4,2 6,5 10,6 5 3 13 7 ESE 1015,3 0,1 0 0,0
11.11.2019 03:00:00 0,8 0,8 1,2 4,3 6,6 10,6 8 5 11 6 SE 1015,6 0,1 0 0,0
11.11.2019 02:00:00 1,2 1,2 1,6 4,4 6,6 10,7 6 3 13 7 SE 1016,0 0,1 0 0,0
11.11.2019 01:00:00 0,7 0,7 1,2 4,5 6,7 10,7 6 3 11 6 ESE 1016,3 0,1 0 0,0
11.11.2019 00:00:00 1,4 1,4 1,8 4,6 6,8 10,7 8 4 11 6 ESE 1016,5 0,1 0 0,0
10.11.2019 23:00:00 1,7 1,7 2,1 4,7 6,9 10,7 8 4 13 7 E 1016,4 0,1 0 0,0
10.11.2019 22:00:00 2,3 2,3 2,5 4,6 7,0 10,7 5 3 9 5 E 1016,2 0,1 0 0,0
10.11.2019 21:00:00 2,1 2,1 2,3 4,3 7,2 10,7 8 4 10 6 ENE 1016,2 0,1 0 0,0
10.11.2019 20:00:00 2,2 1,8 0,0 3,9 7,5 10,7 4 2 9 5 - 1016,0 3,6 0 0,0
10.11.2019 19:00:00 2,6 1,8 -1,1 4,6 7,8 10,7 2 1 5 3 NNW 1016,0 9 0 0,0
10.11.2019 18:00:00 4,3 2,5 0,2 5,5 8,1 10,7 5 3 5 3 WSW 1015,6 10 0 0,0
10.11.2019 17:00:00 5,3 3,0 1,5 6,6 8,3 10,7 5 3 9 5 W 1015,3 10 0 0,0
10.11.2019 16:00:00 6,8 3,0 5,1 8,2 8,3 10,7 9 5 9 5 WSW 1015,0 30 58 0,0
10.11.2019 15:00:00 8,1 3,9 9,1 9,3 8,2 10,7 8 4 9 5 S 1014,7 10 50 0,0
10.11.2019 14:00:00 8,7 3,7 11,1 10,0 7,8 10,7 5 3 9 5 SSW 1014,2 30 60 0,0
10.11.2019 13:00:00 8,3 3,2 11,3 9,6 7,4 10,8 5 3 9 5 SSW 1014,0 10 60 0,0
10.11.2019 12:00:00 7,5 2,8 10,4 8,3 7,0 10,8 5 3 9 5 WNW 1013,9 10 60 0,0
10.11.2019 11:00:00 6,9 3,7 9,1 6,4 6,9 10,8 5 3 9 5 W 1014,0 10 60 0,0
10.11.2019 10:00:00 5,5 3,4 5,8 5,3 6,9 10,8 5 3 9 5 W 1013,6 15 60 0,0
10.11.2019 09:00:00 4,1 3,1 4,2 4,7 7,0 10,8 8 4 16 9 WSW 1013,1 10 52 0,0
10.11.2019 08:00:00 4,2 3,4 2,4 4,9 7,1 10,8 6 4 11 6 SW 1012,8 8 0 0,0
10.11.2019 07:00:00 4,2 3,7 2,8 4,9 7,2 10,8 6 4 11 6 S 1012,3 13 0 0,0
10.11.2019 06:00:00 4,4 3,9 3,3 5,2 7,3 10,8 8 5 11 6 SSE 1012,1 13 0 0,0
10.11.2019 05:00:00 4,6 4,2 2,5 5,2 7,4 10,8 5 3 9 5 S 1011,5 10 0 0,0
10.11.2019 04:00:00 4,9 4,3 3,3 5,7 7,4 10,8 5 3 11 6 SW 1011,0 10 0 0,0
10.11.2019 03:00:00 5,3 4,3 4,6 5,8 7,5 10,8 8 4 11 6 SW 1010,7 10 0 0,0
10.11.2019 02:00:00 5,3 4,4 4,5 5,7 7,5 10,8 9 5 11 6 SSW 1010,5 10 0 0,0
10.11.2019 01:00:00 5,3 4,5 3,9 5,7 7,6 10,8 6 3 9 5 S 1010,4 25 0 0,0
10.11.2019 00:00:00 5,5 4,7 4,6 5,9 7,7 10,8 9 5 11 6 SSW 1010,2 10 0 0,0
09.11.2019 23:00:00 5,6 4,7 4,7 5,7 7,9 10,8 8 4 13 7 SSW 1009,9 10 0 0,0
09.11.2019 22:00:00 5,2 4,6 3,7 5,8 8,0 10,8 9 5 15 8 SSW 1009,8 10 0 0,0
09.11.2019 21:00:00 5,7 4,9 4,2 6,3 8,1 10,8 9 5 16 9 SSW 1009,5 10 0 0,0
09.11.2019 20:00:00 6,0 5,5 5,3 6,7 8,2 10,8 10 6 18 10 SW 1009,1 19 0 0,0
09.11.2019 19:00:00 6,6 5,8 6,1 7,0 8,3 10,8 15 8 21 11 W 1008,9 10 0 0,0
09.11.2019 18:00:00 6,3 5,7 5,8 7,1 8,4 10,8 13 7 21 11 WSW 1008,7 10 0 0,0
09.11.2019 17:00:00 6,6 5,8 6,2 7,4 8,5 10,8 15 8 24 13 W 1008,2 10 0 0,1
09.11.2019 16:00:00 6,5 5,7 6,2 7,6 8,5 10,8 18 10 27 14 W 1007,6 10 0 0,9
09.11.2019 15:00:00 6,9 6,2 6,6 7,9 8,5 10,8 21 11 31 17 W 1006,7 9 0 0,3
09.11.2019 14:00:00 7,6 6,9 7,4 8,1 8,5 10,8 15 8 24 13 W 1006,2 7 0 0,0
09.11.2019 13:00:00 7,3 6,8 7,3 8,1 8,5 10,9 16 9 24 13 WNW 1006,2 4,3 0 0,0
09.11.2019 12:00:00 7,4 6,7 7,4 8,3 8,5 10,9 18 10 24 13 W 1005,7 10 0 0,0
09.11.2019 11:00:00 7,5 6,9 7,6 8,2 8,4 10,9 16 9 25 14 W 1005,8 10 0 0,0
09.11.2019 10:00:00 7,6 7,1 7,5 8,1 8,4 10,9 16 9 24 13 W 1005,6 6 0 0,0
09.11.2019 09:00:00 7,6 7,3 7,6 8,0 8,4 10,9 15 8 18 10 W 1005,4 3,5 0 0,0
09.11.2019 08:00:00 7,5 7,3 7,4 7,9 8,4 10,9 16 9 21 11 W 1005,2 2,3 0 0,0
09.11.2019 07:00:00 7,6 7,4 7,5 7,9 8,4 10,9 11 6 15 8 W 1004,7 1,3 0 0,0
09.11.2019 06:00:00 7,7 7,5 7,6 7,9 8,4 10,9 9 5 11 6 WSW 1005,0 0,8 0 0,0
09.11.2019 05:00:00 7,8 7,4 7,5 7,9 8,3 10,9 4 2 5 3 WNW 1004,4 1,7 0 0,0
09.11.2019 04:00:00 7,7 7,2 7,5 7,8 8,3 10,9 4 2 5 3 - 1004,6 2,5 0 0,0
09.11.2019 03:00:00 7,7 7,3 7,4 7,8 8,3 10,9 5 3 8 4 NNE 1004,5 2,7 0 0,0
09.11.2019 02:00:00 7,7 7,1 7,4 7,7 8,3 10,9 8 4 13 7 NNW 1004,9 2,8 0 0,0
09.11.2019 01:00:00 7,6 7,1 7,3 7,7 8,3 10,9 9 5 16 9 N 1004,9 2,9 0 0,0
09.11.2019 00:00:00 7,5 7,1 7,2 7,6 8,3 10,9 13 7 19 10 N 1005,0 2,8 0 0,2
08.11.2019 23:00:00 7,5 7,1 7,2 7,6 8,3 10,9 12 7 16 9 NNE 1005,3 2,1 0 1,9
08.11.2019 22:00:00 7,7 6,8 7,2 7,6 8,3 10,9 13 7 19 10 NNE 1005,6 7 0 0,0
08.11.2019 21:00:00 7,6 6,7 7,1 7,5 8,3 10,9 15 8 18 10 NNE 1005,6 9 0 0,1
08.11.2019 20:00:00 7,7 6,5 7,1 7,6 8,4 11,0 13 7 22 12 NE 1005,7 12 0 0,0
08.11.2019 19:00:00 7,9 6,4 7,4 7,6 8,4 11,0 14 7 21 11 NE 1006,1 17 0 0,0
08.11.2019 18:00:00 8,0 6,2 6,9 7,6 8,5 11,0 15 8 18 10 NNE 1006,1 10 0 0,0
08.11.2019 17:00:00 8,3 5,9 7,6 7,9 8,5 11,0 13 7 18 10 NNE 1006,7 10 0 0,0
08.11.2019 16:00:00 8,6 5,9 7,6 8,3 8,5 11,0 11 6 22 12 NNE 1006,6 10 0 0,0
08.11.2019 15:00:00 9,0 6,2 8,4 8,7 8,5 11,0 13 7 16 9 NE 1006,6 10 0 0,0
08.11.2019 14:00:00 9,2 6,2 8,8 9,1 8,3 11,0 13 7 16 9 NE 1007,4 10 0 0,0
08.11.2019 13:00:00 9,6 6,0 9,8 9,5 8,0 11,0 11 6 16 9 NE 1007,8 10 0 0,0
08.11.2019 12:00:00 9,5 5,3 11,0 9,3 7,6 11,0 12 6 18 10 NE 1008,0 50 36 0,0
08.11.2019 11:00:00 8,4 5,8 8,7 8,3 7,3 11,0 5 3 9 5 NNE 1008,3 10 14 0,0
08.11.2019 10:00:00 6,3 5,1 6,7 6,5 7,2 11,0 4 2 8 4 E 1009,1 40 0 0,0
08.11.2019 09:00:00 5,1 4,4 5,1 5,3 7,2 11,0 3 2 9 5 E 1008,8 35 0 0,0
08.11.2019 08:00:00 4,0 3,4 2,1 4,5 7,3 11,0 4 2 8 4 E 1008,4 40 0 0,0
08.11.2019 07:00:00 5,0 4,2 2,4 4,7 7,5 11,0 2 1 11 6 - 1007,7 10 0 0,0
08.11.2019 06:00:00 4,9 4,1 2,0 4,8 7,6 11,0 6 3 10 5 S 1007,6 50 0 0,0
08.11.2019 05:00:00 4,7 4,0 0,9 5,1 7,8 11,0 4 2 8 4 SSW 1007,5 10 0 0,0
08.11.2019 04:00:00 5,6 4,5 4,0 5,4 7,9 11,0 2 1 8 4 - 1007,0 10 0 0,0
08.11.2019 03:00:00 5,5 4,2 3,1 5,4 8,1 11,0 5 3 15 8 SSE 1007,0 10 0 0,0
08.11.2019 02:00:00 5,7 4,2 3,5 5,7 8,3 11,0 13 7 21 11 S 1006,8 50 0 0,0
08.11.2019 01:00:00 6,3 4,6 4,3 5,9 8,5 11,0 15 8 21 11 SSE 1005,7 10 0 0,0
08.11.2019 00:00:00 6,6 4,6 4,0 6,4 8,7 11,0 15 8 22 12 SSE 1005,5 10 0 0,0
07.11.2019 23:00:00 7,7 5,0 6,2 7,0 8,8 11,0 15 8 27 14 SSE 1005,2 10 0 0,0
07.11.2019 22:00:00 7,6 5,1 6,2 6,8 9,0 11,0 13 7 21 11 SSE 1005,2 10 0 0,0
07.11.2019 21:00:00 8,0 5,2 6,1 7,3 9,1 11,0 15 8 23 12 SSE 1004,8 10 0 0,0
07.11.2019 20:00:00 8,6 5,6 6,6 7,7 9,3 11,0 14 7 21 11 S 1004,6 50 0 0,0
07.11.2019 19:00:00 8,4 6,1 6,3 7,9 9,5 11,0 11 6 16 9 SE 1004,2 50 0 0,0
07.11.2019 18:00:00 8,6 6,2 6,2 8,2 9,7 11,0 14 7 20 11 ESE 1003,8 50 0 0,0
07.11.2019 17:00:00 8,9 6,4 4,9 9,2 9,9 11,0 9 5 13 7 ESE 1003,9 10 3 0,0
07.11.2019 16:00:00 10,7 7,2 9,4 10,7 9,8 11,1 10 5 18 10 SE 1003,4 45 0 0,0
07.11.2019 15:00:00 11,1 7,6 11,0 11,2 9,7 11,1 11 6 18 10 SSE 1003,2 10 0 0,0
07.11.2019 14:00:00 10,9 7,5 11,1 11,9 9,4 11,1 13 7 17 9 SSE 1003,1 10 11 0,0
07.11.2019 13:00:00 11,0 7,7 12,9 11,9 8,9 11,1 11 6 19 10 S 1003,0 10 43 0,0
07.11.2019 12:00:00 10,6 7,3 14,1 10,9 8,6 11,1 15 8 18 10 S 1003,3 10 59 0,0
07.11.2019 11:00:00 9,6 7,4 12,3 9,2 8,3 11,1 13 7 18 10 S 1003,7 10 32 0,0
07.11.2019 10:00:00 7,9 7,2 8,4 8,0 8,2 11,1 11 6 18 10 SSE 1003,7 8 0 0,0
07.11.2019 09:00:00 7,2 6,6 7,3 7,5 8,2 11,1 11 6 15 8 SSE 1003,7 6 0 0,0
07.11.2019 08:00:00 6,8 6,5 6,5 7,1 8,2 11,1 10 5 15 8 SE 1003,5 5 0 0,0
07.11.2019 07:00:00 6,6 6,3 6,3 7,0 8,2 11,1 11 6 13 7 SE 1003,1 5 0 0,0
07.11.2019 06:00:00 6,1 5,9 5,9 6,8 8,3 11,1 3 2 8 4 SE 1003,2 3,5 0 0,0
07.11.2019 05:00:00 5,8 5,7 4,6 6,9 8,3 11,1 5 3 5 3 E 1003,3 1,8 0 0,0
07.11.2019 04:00:00 5,8 5,7 5,6 6,9 8,4 11,1 2 1 8 4 - 1003,5 0,8 0 0,0
07.11.2019 03:00:00 5,9 5,9 5,5 6,8 8,4 11,1 8 4 13 7 S 1003,6 0,2 0 0,0
07.11.2019 02:00:00 5,9 5,8 5,7 6,6 8,6 11,1 8 4 11 6 S 1003,8 0,9 0 0,0
07.11.2019 01:00:00 5,5 5,2 3,7 6,4 8,7 11,1 9 5 15 8 SW 1003,8 10 0 0,0
07.11.2019 00:00:00 6,2 5,8 5,3 7,1 8,9 11,1 9 5 18 10 WSW 1003,7 10 0 0,0
06.11.2019 23:00:00 6,8 6,3 6,0 7,5 9,0 11,1 13 7 15 8 SW 1003,7 10 0 0,0
06.11.2019 22:00:00 7,2 6,7 6,6 7,9 9,1 11,1 11 6 16 9 WSW 1003,5 10 0 0,0
06.11.2019 21:00:00 7,7 7,2 7,1 8,2 9,1 11,1 11 6 16 9 WSW 1003,0 20 0 0,1
06.11.2019 20:00:00 7,7 7,2 7,3 8,2 9,2 11,1 8 4 12 7 SW 1002,6 10 0 0,0
06.11.2019 19:00:00 7,9 7,4 7,2 8,5 9,3 11,1 8 4 9 5 WSW 1002,3 10 0 0,0
06.11.2019 18:00:00 8,0 7,3 7,5 8,7 9,3 11,1 5 3 8 4 W 1002,1 10 0 0,1
06.11.2019 17:00:00 8,2 7,0 7,6 8,9 9,3 11,1 5 3 10 6 W 1001,6 10 0 0,4

tt = temperature
td = dewpoint
tt 5cm = temperature 5cm
tt -5cm = temperature -5cm
tt -20cm = temperature -20cm
tt -100cm = temperature -100cm
ff = wind speed
fx = gusts
dd = wind direction
ppp = reduced air pressure
vv = visibility
sd = sunshine duration
rr = precipitation

Next stations